CW0608 Weather Reports


Display with metric or nautical units.
time (UTC)temp
F
wind
direction
speed
MPH
gust
MPH
rain 1hr
in
rain 24hr
in
rain mn
in
humidity
%
barometer
mb
20200715015804 75 154 0.0 0.0 0.00 0.00 0.00 79 1018.8
20200715015304 75 154 0.0 0.0 0.00 0.00 0.00 78 1018.7
20200715014804 75 154 0.0 0.0 0.00 0.00 0.00 78 1018.7
20200715014305 76 154 0.0 0.0 0.00 0.00 0.00 77 1018.5
20200715013805 76 154 0.0 0.0 0.00 0.00 0.00 76 1018.6
20200715013303 76 154 0.0 0.0 0.00 0.00 0.00 76 1018.4
20200715012804 77 154 0.0 0.0 0.00 0.00 0.00 75 1018.4
20200715012313 78 158 0.0 0.0 0.00 0.00 0.00 71 1018.1
20200715010305 78 154 0.0 0.0 0.00 0.00 0.00 69 1018.1
20200715005305 79 154 0.0 0.0 0.00 0.00 0.00 67 1018.1
20200715003805 80 154 0.0 0.0 0.00 0.00 0.00 65 1018.2
20200715003308 80 154 0.0 1.0 0.00 0.00 0.00 64 1018.1
20200715002305 81 154 0.0 1.0 0.00 0.00 0.00 64 1018.1
20200715001310 82 154 0.0 2.0 0.00 0.00 0.00 62 1017.9
20200715000806 82 154 1.0 2.0 0.00 0.00 0.00 61 1017.8
20200715000315 82 154 0.0 2.0 0.00 0.00 0.00 59 1017.7
20200714235806 82 154 0.0 3.0 0.00 0.00 0.00 59 1017.6
20200714235304 82 154 1.0 3.0 0.00 0.00 0.00 56 1017.7
20200714234804 82 160 0.0 3.0 0.00 0.00 0.00 56 1017.8
20200714233804 83 164 3.0 5.0 0.00 0.00 0.00 53 1017.5
20200714233305 83 193 1.0 3.0 0.00 0.00 0.00 56 1017.5
20200714232805 83 165 1.0 3.0 0.00 0.00 0.00 55 1017.5
20200714232305 83 138 1.0 3.0 0.00 0.00 0.00 55 1017.4
20200714231805 83 53 1.0 3.0 0.00 0.00 0.00 55 1017.3
20200714231306 83 53 1.0 2.0 0.00 0.00 0.00 55 1017.2
20200714230304 83 53 1.0 2.0 0.00 0.00 0.00 55 1017.1
20200714225804 83 53 1.0 3.0 0.00 0.00 0.00 54 1017.1
20200714225306 84 53 1.0 3.0 0.00 0.00 0.00 50 1017.1
20200714224805 84 53 1.0 3.0 0.00 0.00 0.00 52 1016.9
20200714224305 84 51 1.0 3.0 0.00 0.00 0.00 50 1016.9
20200714223806 84 53 1.0 2.0 0.00 0.00 0.00 50 1016.9
20200714223305 84 54 1.0 2.0 0.00 0.00 0.00 53 1016.9
20200714222806 84 62 1.0 3.0 0.00 0.00 0.00 51 1016.9
20200714222304 84 81 2.0 3.0 0.00 0.00 0.00 52 1016.9
20200714221805 84 323 1.0 3.0 0.00 0.00 0.00 51 1016.7
20200714221304 84 319 1.0 3.0 0.00 0.00 0.00 51 1016.8
20200714220804 85 323 1.0 3.0 0.00 0.00 0.00 49 1016.7
20200714220306 85 323 2.0 3.0 0.00 0.00 0.00 49 1016.7
20200714215804 85 89 1.0 3.0 0.00 0.00 0.00 47 1016.6
20200714214304 86 327 1.0 5.0 0.00 0.00 0.00 49 1016.7
20200714213304 86 342 1.0 3.0 0.00 0.00 0.00 47 1016.6
20200714212804 86 30 2.0 6.0 0.00 0.00 0.00 44 1016.4
20200714212305 87 311 1.0 7.0 0.00 0.00 0.00 44 1016.5
20200714211804 86 290 3.0 9.0 0.00 0.00 0.00 45 1016.5
20200714211304 86 313 2.0 9.0 0.00 0.00 0.00 45 1016.4
20200714210807 87 296 3.0 7.0 0.00 0.00 0.00 43 1016.4
20200714210304 86 304 1.0 5.0 0.00 0.00 0.00 48 1016.3
20200714205804 86 348 2.0 5.0 0.00 0.00 0.00 47 1016.3
20200714205305 87 8 2.0 6.0 0.00 0.00 0.00 49 1016.3
20200714204306 87 267 1.0 10.0 0.00 0.00 0.00 49 1016.4
20200714203805 86 307 1.0 10.0 0.00 0.00 0.00 47 1016.3
20200714203305 86 5 2.0 5.0 0.00 0.00 0.00 44 1016.3
20200714202806 87 304 2.0 5.0 0.00 0.00 0.00 43 1016.3
20200714202307 86 349 2.0 3.0 0.00 0.00 0.00 47 1016.4
20200714201805 86 31 2.0 6.0 0.00 0.00 0.00 49 1016.3
20200714201304 87 357 3.0 6.0 0.00 0.00 0.00 44 1016.3
20200714195806 87 307 2.0 7.0 0.00 0.00 0.00 46 1016.1
20200714195305 87 272 3.0 7.0 0.00 0.00 0.00 47 1016.1
20200714194809 87 15 2.0 3.0 0.00 0.00 0.00 50 1016.1
20200714193805 87 1 1.0 5.0 0.00 0.00 0.00 46 1016.1
20200714192805 86 28 2.0 7.0 0.00 0.00 0.00 48 1016.1
20200714191304 86 275 2.0 7.0 0.00 0.00 0.00 49 1016.2
20200714190806 87 266 2.0 8.0 0.00 0.00 0.00 50 1016.3
20200714190304 86 241 3.0 8.0 0.00 0.00 0.00 47 1016.3
20200714185305 86 308 2.0 7.0 0.00 0.00 0.00 50 1016.3
20200714184805 86 310 2.0 9.0 0.00 0.00 0.00 48 1016.3
20200714184307 86 278 3.0 9.0 0.00 0.00 0.00 47 1016.4
20200714183807 87 268 2.0 8.0 0.00 0.00 0.00 49 1016.4
20200714181805 87 266 3.0 7.0 0.00 0.00 0.00 49 1016.4
20200714175804 86 302 3.0 10.0 0.00 0.00 0.00 47 1016.5
20200714175305 86 302 4.0 8.0 0.00 0.00 0.00 50 1016.5
20200714174804 86 275 3.0 8.0 0.00 0.00 0.00 52 1016.6
20200714174305 84 336 4.0 8.0 0.00 0.00 0.00 53 1016.8
20200714173804 84 297 3.0 8.0 0.00 0.00 0.00 50 1016.8
20200714173304 85 303 2.0 7.0 0.00 0.00 0.00 50 1016.8
20200714172805 85 352 3.0 8.0 0.00 0.00 0.00 49 1016.9
20200714172304 84 127 2.0 10.0 0.00 0.00 0.00 55 1016.9
20200714171805 85 276 3.0 10.0 0.00 0.00 0.00 51 1016.8
20200714171304 85 271 2.0 6.0 0.00 0.00 0.00 53 1016.6
20200714170804 85 38 2.0 9.0 0.00 0.00 0.00 53 1016.6
20200714165304 85 252 2.0 7.0 0.00 0.00 0.00 54 1016.4
20200714164806 85 322 3.0 7.0 0.00 0.00 0.00 54 1016.5
20200714164305 85 276 3.0 7.0 0.00 0.00 0.00 53 1016.6
20200714163804 84 294 3.0 8.0 0.00 0.00 0.00 51 1016.5
20200714163305 84 278 3.0 10.0 0.00 0.00 0.00 53 1016.5
20200714162805 84 275 4.0 10.0 0.00 0.00 0.00 52 1016.5
20200714161305 83 292 3.0 10.0 0.00 0.00 0.00 53 1016.5
20200714160804 84 311 2.0 10.0 0.00 0.00 0.00 57 1016.5
20200714155807 83 197 1.0 7.0 0.00 0.00 0.00 57 1016.5
20200714155306 83 300 1.0 9.0 0.00 0.00 0.00 60 1016.5
20200714154805 82 242 3.0 12.0 0.00 0.00 0.00 55 1016.5
20200714153304 82 279 5.0 12.0 0.00 0.00 0.00 57 1016.7
20200714152804 82 236 3.0 12.0 0.00 0.00 0.00 58 1016.6
20200714152305 81 6 2.0 12.0 0.00 0.00 0.00 56 1016.7
20200714151804 82 292 5.0 9.0 0.00 0.00 0.00 53 1016.6
20200714151304 82 293 2.0 9.0 0.00 0.00 0.00 59 1016.6
20200714150806 82 314 4.0 10.0 0.00 0.00 0.00 57 1016.6
20200714150305 81 280 3.0 10.0 0.00 0.00 0.00 56 1016.5
20200714145804 81 279 2.0 10.0 0.00 0.00 0.00 58 1016.4
20200714145305 81 295 3.0 8.0 0.00 0.00 0.00 56 1016.5
20200714144804 81 261 3.0 7.0 0.00 0.00 0.00 58 1016.5
20200714144305 80 321 1.0 3.0 0.00 0.00 0.00 59 1016.4
20200714143304 80 60 2.0 3.0 0.00 0.00 0.00 60 1016.5
20200714142305 79 57 2.0 3.0 0.00 0.00 0.00 64 1016.5
20200714140305 79 308 1.0 3.0 0.00 0.00 0.00 62 1016.6
20200714135304 79 319 2.0 5.0 0.00 0.00 0.00 63 1016.6
20200714134804 78 30 2.0 5.0 0.00 0.00 0.00 67 1016.7
20200714134307 78 77 2.0 5.0 0.00 0.00 0.00 66 1016.7
20200714133804 78 53 2.0 5.0 0.00 0.00 0.00 65 1016.7
20200714133306 77 82 2.0 5.0 0.00 0.00 0.00 67 1016.7
20200714132805 77 40 2.0 3.0 0.00 0.00 0.00 68 1016.7
20200714132307 76 18 1.0 6.0 0.00 0.00 0.00 69 1016.8
20200714131805 76 325 0.0 6.0 0.00 0.00 0.00 68 1016.8
20200714131305 75 346 1.0 3.0 0.00 0.00 0.00 70 1016.7
20200714125811 75 55 1.0 3.0 0.00 0.00 0.00 73 1016.6
20200714125307 75 346 0.0 3.0 0.00 0.00 0.00 71 1016.7
20200714124804 75 304 2.0 3.0 0.00 0.00 0.00 72 1016.6
20200714124306 75 13 1.0 3.0 0.00 0.00 0.00 72 1016.5
20200714123304 75 21 1.0 3.0 0.00 0.00 0.00 73 1016.5
20200714122304 76 295 1.0 6.0 0.00 0.00 0.00 70 1016.4
20200714121804 76 263 1.0 6.0 0.00 0.00 0.00 73 1016.3
20200714121304 75 257 0.0 3.0 0.00 0.00 0.00 73 1016.3
20200714120805 75 287 0.0 2.0 0.00 0.00 0.00 77 1016.2
20200714120306 74 287 1.0 3.0 0.00 0.00 0.00 78 1016.2
20200714115304 72 290 2.0 3.0 0.00 0.00 0.00 80 1016.1
20200714114806 71 292 1.0 3.0 0.00 0.00 0.00 81 1016.1
20200714113821 69 264 2.0 3.0 0.00 0.00 0.00 86 1016.1
20200714113304 68 263 2.0 3.0 0.00 0.00 0.00 88 1016.0
20200714112305 67 253 0.0 2.0 0.00 0.00 0.00 92 1016.0
20200714111304 66 247 1.0 3.0 0.00 0.00 0.00 93 1015.9
20200714110805 65 247 0.0 3.0 0.00 0.00 0.00 92 1016.0
20200714110305 65 247 1.0 2.0 0.00 0.00 0.00 92 1015.9
20200714105805 65 247 1.0 2.0 0.00 0.00 0.00 92 1015.9
20200714105304 65 247 0.0 2.0 0.00 0.00 0.00 92 1015.6
20200714104806 65 177 1.0 2.0 0.00 0.00 0.00 91 1015.6
20200714102804 65 170 0.0 1.0 0.00 0.00 0.00 91 1015.4
20200714102305 65 170 0.0 1.0 0.00 0.00 0.00 90 1015.4
20200714101806 65 170 0.0 1.0 0.00 0.00 0.00 90 1015.3
20200714100804 66 180 0.0 1.0 0.00 0.00 0.00 90 1015.3
20200714100304 66 261 0.0 1.0 0.00 0.00 0.00 90 1015.3
20200714095805 66 261 0.0 1.0 0.00 0.00 0.00 89 1015.2
20200714094805 66 261 0.0 1.0 0.00 0.00 0.00 89 1015.1
20200714094304 66 261 0.0 1.0 0.00 0.00 0.00 89 1015.0
20200714093804 66 261 0.0 1.0 0.00 0.00 0.00 89 1014.8
20200714092805 66 261 0.0 1.0 0.00 0.00 0.00 88 1014.9
20200714092304 66 261 0.0 1.0 0.00 0.00 0.00 88 1014.8
20200714091304 67 261 0.0 0.0 0.00 0.00 0.00 87 1014.7
20200714090804 67 261 0.0 0.0 0.00 0.00 0.00 87 1014.7
20200714090305 67 261 0.0 1.0 0.00 0.00 0.00 87 1014.6
20200714084305 67 261 1.0 2.0 0.00 0.00 0.00 86 1014.5
20200714083805 67 261 1.0 2.0 0.00 0.00 0.00 85 1014.4
20200714082806 67 261 0.0 1.0 0.00 0.00 0.00 85 1014.3
20200714082304 68 261 0.0 0.0 0.00 0.00 0.00 84 1014.3
20200714081805 68 261 0.0 1.0 0.00 0.00 0.00 85 1014.2
20200714080804 68 261 0.0 1.0 0.00 0.00 0.00 87 1014.1
20200714080304 68 261 0.0 7.0 0.00 0.00 0.00 88 1014.1
20200714074805 69 233 1.0 3.0 0.00 0.00 0.00 89 1014.1
20200714074304 69 286 1.0 2.0 0.00 0.00 0.00 89 1014.1
20200714073805 69 285 0.0 0.0 0.00 0.00 0.00 89 1014.0
20200714072804 70 285 0.0 1.0 0.00 0.00 0.00 89 1014.0
20200714071806 70 285 0.0 1.0 0.00 0.00 0.00 89 1014.0
20200714071306 70 285 0.0 1.0 0.00 0.00 0.00 90 1014.0
20200714070805 70 285 0.0 1.0 0.00 0.00 0.00 90 1013.9
20200714070304 70 285 0.0 0.0 0.00 0.00 0.00 90 1014.0
20200714065805 71 285 0.0 0.0 0.00 0.00 0.00 91 1013.9
20200714065305 71 285 0.0 0.0 0.00 0.00 0.00 91 1013.9
20200714064805 71 285 0.0 0.0 0.00 0.00 0.00 91 1013.9
20200714064305 71 285 0.0 0.0 0.00 0.00 0.00 90 1013.9
20200714063305 71 285 0.0 2.0 0.00 0.00 0.00 90 1013.9
20200714062804 71 285 1.0 2.0 0.00 0.00 0.00 90 1013.9
20200714062304 71 285 1.0 2.0 0.00 0.00 0.00 90 1013.9
20200714061804 71 285 0.0 2.0 0.00 0.00 0.00 90 1014.0
20200714060804 71 285 0.0 1.0 0.00 0.00 0.00 90 1013.9
20200714060305 71 285 0.0 1.0 0.00 0.00 0.00 90 1013.9
20200714055305 71 285 0.0 2.0 0.00 0.00 0.00 90 1013.9
20200714054805 71 285 0.0 2.0 0.00 0.00 0.00 90 1013.9
20200714054304 71 285 0.0 1.0 0.00 0.00 0.00 91 1013.9
20200714053804 71 285 0.0 2.0 0.00 0.00 0.00 91 1014.0
20200714053304 71 285 0.0 2.0 0.00 0.00 0.00 91 1013.9
20200714052304 71 285 1.0 3.0 0.00 0.00 0.00 91 1013.9
20200714051805 71 285 1.0 3.0 0.00 0.00 0.00 91 1014.0
20200714051305 72 268 0.0 2.0 0.00 0.00 0.00 91 1013.9
20200714050805 72 268 0.0 2.0 0.00 0.01 0.00 91 1013.9
20200714045805 72 268 1.0 3.0 0.00 0.01 0.00 90 1013.7
20200714045305 72 268 0.0 2.0 0.00 0.01 0.00 89 1013.8
20200714044804 72 268 0.0 2.0 0.00 0.01 0.00 89 1013.8
20200714044304 72 268 0.0 2.0 0.00 0.01 0.00 89 1013.7
20200714042805 72 268 0.0 2.0 0.00 0.01 0.00 89 1013.6
20200714042305 72 268 0.0 2.0 0.00 0.01 0.00 89 1013.5
20200714041805 72 268 1.0 3.0 0.00 0.01 0.00 89 1013.6
20200714040304 73 267 1.0 3.0 0.00 0.01 0.00 89 1013.7
20200714035805 73 267 2.0 3.0 0.00 0.01 0.01 89 1013.8
20200714034804 73 279 1.0 3.0 0.00 0.01 0.01 89 1013.8
20200714034305 73 279 1.0 3.0 0.00 0.01 0.01 88 1013.7
20200714033805 73 279 2.0 3.0 0.00 0.01 0.01 88 1013.7
20200714033305 73 279 0.0 1.0 0.00 0.01 0.01 88 1013.8
20200714032805 73 279 0.0 2.0 0.00 0.01 0.01 88 1013.8
20200714032305 73 279 1.0 2.0 0.00 0.01 0.01 88 1013.7
20200714031304 73 279 0.0 1.0 0.00 0.01 0.01 88 1013.6
20200714025804 73 279 0.0 0.0 0.00 0.01 0.01 87 1013.4
20200714025305 73 279 0.0 0.0 0.00 0.01 0.01 87 1013.4
20200714024806 73 279 0.0 0.0 0.00 0.01 0.01 87 1013.3
20200714024304 73 279 0.0 0.0 0.00 0.01 0.01 86 1013.4
20200714023805 73 279 0.0 0.0 0.00 0.01 0.01 86 1013.3
20200714023305 73 279 0.0 0.0 0.00 0.01 0.01 86 1013.3
20200714022805 73 279 0.0 0.0 0.00 0.01 0.01 86 1013.3
20200714022304 73 279 0.0 0.0 0.00 0.01 0.01 85 1013.2
20200714021804 73 279 0.0 0.0 0.00 0.01 0.01 85 1013.3
20200714021304 73 279 0.0 0.0 0.00 0.01 0.01 85 1013.3